| Measure | Realization |
| Indicator Name: | GNI, PPP (current international $) |
| Indicator Source: | International Comparison Program, World Bank | World Development Indicators database, World Bank | Eurostat-OECD PPP Programme. | macro-rankings.com |
| Indicator Description: | This indicator provides values for gross national income (GNI. Formerly GNP) expressed in current international dollars converted by purchasing power parity (PPP) conversion factor. Gross national income is the sum of value added by all resident producers plus any product taxes (less subsidies) not included in the valuation of output plus net receipts of primary income (compensation of employees and property income) from abroad. PPP conversion factor is a spatial price deflator and currency converter that eliminates the effects of the differences in price levels between countries. From July 2020, “GNI: linked series (current LCU)” [NY.GNP.MKTP.CN.AD] is used as underlying GNI in local currency unit so that it’s in line with time series of PPP conversion factors, which are extrapolated with linked deflators. |
| Observations Date: | 12/31/2007 |
| Apply MultipleColumn-Sorting | |||||||||||
|---|---|---|---|---|---|---|---|---|---|---|---|
| Number | Select Item | Name
Filter Table By Column Values
| Id
Filter Table By Column Values
| Value
Filter Table By Column Values
| Rank
Filter Table By Column Values
| Cluster
Filter Table By Column Values
| Date
Filter Table By Column Values
| ||||
| 1 | China | CN | 41,019,094,981,425.10 | 1 | 1 | 12/31/2025 | |||||
| 2 | United States | US | 30,585,823,000,000.00 | 2 | 2 | 12/31/2025 | |||||
| 3 | India | IN | 16,982,817,599,656.30 | 3 | 2 | 12/31/2025 | |||||
| 4 | Japan | JP | 7,268,805,177,387.08 | 4 | 3 | 12/31/2025 | |||||
| 5 | Russian Federation | RU | 7,184,895,114,078.46 | 5 | 3 | 12/31/2025 | |||||
| 6 | Germany | DE | 6,523,709,722,627.16 | 6 | 3 | 12/31/2025 | |||||
| 7 | Indonesia | ID | 4,911,586,186,266.00 | 7 | 3 | 12/31/2025 | |||||
| 8 | Brazil | BR | 4,824,646,757,439.01 | 8 | 3 | 12/31/2025 | |||||
| 9 | France | FR | 4,474,299,725,067.19 | 9 | 3 | 12/31/2025 | |||||
| 10 | United Kingdom | GB | 4,461,603,259,091.79 | 10 | 3 | 12/31/2025 | |||||
| 11 | Turkey | TR | 3,832,674,632,585.32 | 11 | 3 | 12/31/2025 | |||||
| 12 | Italy | IT | 3,704,288,722,297.34 | 12 | 3 | 12/31/2025 | |||||
| 13 | Korea, Rep. | KR | 3,318,637,572,220.65 | 13 | 4 | 12/31/2025 | |||||
| 14 | Mexico | MX | 3,308,340,614,667.55 | 14 | 4 | 12/31/2025 | |||||
| 15 | Spain | ES | 2,952,799,673,629.22 | 15 | 4 | 12/31/2025 | |||||
| 16 | Canada | CA | 2,783,125,372,599.95 | 16 | 4 | 12/31/2025 | |||||
| 17 | Saudi Arabia | SA | 2,750,822,096,954.53 | 17 | 4 | 12/31/2025 | |||||
| 18 | Egypt, Arab Rep. | EG | 2,287,719,974,337.03 | 18 | 4 | 12/31/2025 | |||||
| 19 | Nigeria | NG | 2,193,249,502,981.18 | 19 | 4 | 12/31/2025 | |||||
| 20 | Australia | AU | 1,931,133,720,244.50 | 20 | 4 | 12/31/2025 | |||||
| 21 | Poland | PL | 1,905,340,738,713.60 | 21 | 4 | 12/31/2025 | |||||
| 22 | Bangladesh | BD | 1,881,819,245,565.33 | 22 | 4 | 12/31/2025 | |||||
| 23 | Thailand | TH | 1,831,430,314,303.20 | 23 | 4 | 12/31/2025 | |||||
| 24 | Iran, Islamic Rep. | IR | 1,816,575,652,549.76 | 24 | 4 | 12/31/2025 | |||||
| 25 | Philippines | PH | 1,688,492,033,413.29 | 25 | 4 | 12/31/2025 | |||||
| 26 | Pakistan | PK | 1,640,182,195,366.14 | 26 | 4 | 12/31/2025 | |||||
| 27 | Netherlands | NL | 1,546,052,393,712.11 | 27 | 4 | 12/31/2025 | |||||
| 28 | Argentina | AR | 1,463,737,416,604.55 | 28 | 4 | 12/31/2025 | |||||
| 29 | Malaysia | MY | 1,441,724,780,295.46 | 29 | 4 | 12/31/2025 | |||||
| 30 | Colombia | CO | 1,188,603,155,472.88 | 30 | 4 | 12/31/2025 | |||||
| 31 | South Africa | ZA | 1,010,102,103,023.59 | 31 | 5 | 12/31/2025 | |||||
| 32 | Romania | RO | 942,485,408,724.49 | 32 | 5 | 12/31/2025 | |||||
| 33 | Switzerland | CH | 924,653,872,701.40 | 33 | 5 | 12/31/2025 | |||||
| 34 | Belgium | BE | 903,019,877,929.66 | 34 | 5 | 12/31/2025 | |||||
| 35 | United Arab Emirates | AE | 896,971,562,097.30 | 35 | 5 | 12/31/2024 | |||||
| 36 | Algeria | DZ | 864,985,687,661.69 | 36 | 5 | 12/31/2025 | |||||
| 37 | Kazakhstan | KZ | 856,512,602,389.69 | 37 | 5 | 12/31/2025 | |||||
| 38 | Singapore | SG | 829,610,766,156.07 | 38 | 5 | 12/31/2025 | |||||
| 39 | Sweden | SE | 806,297,554,434.45 | 39 | 5 | 12/31/2025 | |||||
| 40 | Chile | CL | 709,595,275,089.72 | 40 | 5 | 12/31/2025 | |||||
| 41 | Austria | AT | 709,085,569,412.52 | 41 | 5 | 12/31/2025 | |||||
| 42 | Ukraine | UA | 684,625,493,390.85 | 42 | 5 | 12/31/2025 | |||||
| 43 | Iraq | IQ | 671,973,305,389.17 | 43 | 5 | 12/31/2025 | |||||
| 44 | Hong Kong SAR, China | HK | 663,621,067,239.97 | 44 | 5 | 12/31/2025 | |||||
| 45 | Czechia | CZ | 630,061,269,851.56 | 45 | 5 | 12/31/2025 | |||||
| 46 | Venezuela, RB | VE | 608,356,697,545.18 | 46 | 5 | 12/31/2011 | |||||
| 47 | Peru | PE | 606,507,080,587.20 | 47 | 5 | 12/31/2025 | |||||
| 48 | Norway | NO | 604,671,496,364.50 | 48 | 5 | 12/31/2025 | |||||
| 49 | Israel | IL | 595,971,240,835.35 | 49 | 5 | 12/31/2025 | |||||
| 50 | Ireland | IE | 583,044,676,257.94 | 50 | 5 | 12/31/2025 | |||||
| 51 | Portugal | PT | 564,473,737,313.23 | 51 | 5 | 12/31/2025 | |||||
| 52 | Denmark | DK | 513,515,618,048.07 | 52 | 5 | 12/31/2025 | |||||
| 53 | Uzbekistan | UZ | 505,247,547,353.93 | 53 | 5 | 12/31/2025 | |||||
| 54 | Ethiopia | ET | 489,798,906,857.21 | 54 | 5 | 12/31/2025 | |||||
| 55 | Hungary | HU | 462,723,588,241.03 | 55 | 5 | 12/31/2025 | |||||
| 56 | Greece | GR | 461,468,418,727.63 | 56 | 5 | 12/31/2025 | |||||
| 57 | Morocco | MA | 427,772,752,797.88 | 57 | 5 | 12/31/2025 | |||||
| 58 | Kenya | KE | 397,306,134,792.22 | 58 | 5 | 12/31/2025 | |||||
| 59 | Angola | AO | 384,088,661,954.00 | 59 | 5 | 12/31/2025 | |||||
| 60 | Qatar | QA | 375,358,463,057.07 | 60 | 5 | 12/31/2025 | |||||
| 61 | Finland | FI | 374,339,527,575.76 | 61 | 5 | 12/31/2025 | |||||
| 62 | Sri Lanka | LK | 364,367,098,031.67 | 62 | 5 | 12/31/2025 | |||||
| 63 | Myanmar | MM | 322,961,434,417.34 | 63 | 5 | 12/31/2025 | |||||
| 64 | Kuwait | KW | 313,627,143,949.07 | 64 | 5 | 12/31/2024 | |||||
| 65 | Belarus | BY | 311,698,257,299.92 | 65 | 5 | 12/31/2025 | |||||
| 66 | Dominican Republic | DO | 310,773,666,835.91 | 66 | 5 | 12/31/2025 | |||||
| 67 | Tanzania | TZ | 298,564,929,040.04 | 67 | 5 | 12/31/2025 | |||||
| 68 | Ecuador | EC | 297,999,449,478.58 | 68 | 5 | 12/31/2025 | |||||
| 69 | New Zealand | NZ | 285,427,463,655.94 | 69 | 5 | 12/31/2025 | |||||
| 70 | Ghana | GH | 283,448,233,153.70 | 70 | 5 | 12/31/2025 | |||||
| 71 | Guatemala | GT | 280,608,081,592.71 | 71 | 5 | 12/31/2025 | |||||
| 72 | Bulgaria | BG | 271,313,843,619.21 | 72 | 5 | 12/31/2025 | |||||
| 73 | Azerbaijan | AZ | 260,575,407,641.48 | 73 | 5 | 12/31/2025 | |||||
| 74 | Slovak Republic | SK | 259,434,049,483.89 | 74 | 5 | 12/31/2025 | |||||
| 75 | Cote d'Ivoire | CI | 253,622,078,507.45 | 75 | 5 | 12/31/2025 | |||||
| 76 | Congo, Dem. Rep. | CD | 208,601,649,653.46 | 76 | 5 | 12/31/2025 | |||||
| 77 | Serbia | RS | 208,118,753,419.70 | 77 | 5 | 12/31/2025 | |||||
| 78 | Oman | OM | 208,065,740,945.13 | 78 | 5 | 12/31/2024 | |||||
| 79 | Croatia | HR | 195,395,191,585.10 | 79 | 5 | 12/31/2025 | |||||
| 80 | Panama | PA | 190,951,125,696.79 | 80 | 5 | 12/31/2025 | |||||
| 81 | Nepal | NP | 185,211,371,830.80 | 81 | 5 | 12/31/2025 | |||||
| 82 | Tunisia | TN | 183,566,591,756.83 | 82 | 5 | 12/31/2025 | |||||
| 83 | Uganda | UG | 175,122,628,397.38 | 83 | 5 | 12/31/2025 | |||||
| 84 | Turkmenistan | TM | 173,939,057,152.68 | 84 | 5 | 12/31/2025 | |||||
| 85 | Cameroon | CM | 170,234,402,878.88 | 85 | 5 | 12/31/2025 | |||||
| 86 | Lithuania | LT | 158,925,019,477.97 | 86 | 5 | 12/31/2025 | |||||
| 87 | Costa Rica | CR | 158,525,836,981.07 | 87 | 5 | 12/31/2025 | |||||
| 88 | Bolivia | BO | 157,701,450,300.29 | 88 | 5 | 12/31/2025 | |||||
| 89 | Cambodia | KH | 149,782,493,131.03 | 89 | 5 | 12/31/2025 | |||||
| 90 | Jordan | JO | 143,275,762,082.48 | 90 | 5 | 12/31/2025 | |||||
| 91 | Paraguay | PY | 135,985,979,805.47 | 91 | 5 | 12/31/2025 | |||||
| 92 | Libya | LY | 127,881,510,019.12 | 92 | 5 | 12/31/2025 | |||||
| 93 | Slovenia | SI | 125,469,503,348.30 | 93 | 5 | 12/31/2025 | |||||
| 94 | Uruguay | UY | 122,964,562,744.35 | 94 | 5 | 12/31/2025 | |||||
| 95 | Sudan | SD | 110,342,877,741.91 | 95 | 5 | 12/31/2025 | |||||
| 96 | Georgia | GE | 108,504,399,258.92 | 96 | 5 | 12/31/2025 | |||||
| 97 | Zimbabwe | ZW | 108,380,659,316.16 | 97 | 5 | 12/31/2025 | |||||
| 98 | Syrian Arab Republic | SY | 106,445,278,716.56 | 98 | 5 | 12/31/2022 | |||||
| 99 | Bahrain | BH | 104,826,011,607.75 | 99 | 5 | 12/31/2025 | |||||
| 100 | Senegal | SN | 96,528,820,548.97 | 100 | 5 | 12/31/2025 | |||||
| 101 | Afghanistan | AF | 95,777,311,957.01 | 101 | 5 | 12/31/2024 | |||||
| 102 | Tajikistan | TJ | 88,846,725,736.54 | 102 | 5 | 12/31/2025 | |||||
| 103 | Yemen, Rep. | YE | 88,588,684,668.56 | 103 | 5 | 12/31/2013 | |||||
| 104 | Zambia | ZM | 87,437,580,474.82 | 104 | 5 | 12/31/2025 | |||||
| 105 | Macao SAR, China | MO | 86,305,188,732.59 | 105 | 5 | 12/31/2024 | |||||
| 106 | Mali | ML | 85,762,138,094.51 | 106 | 5 | 12/31/2025 | |||||
| 107 | Latvia | LV | 84,516,532,104.56 | 107 | 5 | 12/31/2025 | |||||
| 108 | El Salvador | SV | 83,655,992,333.13 | 108 | 5 | 12/31/2025 | |||||
| 109 | Bosnia and Herzegovina | BA | 81,059,706,640.83 | 109 | 5 | 12/31/2025 | |||||
| 110 | Honduras | HN | 79,972,399,535.36 | 110 | 5 | 12/31/2025 | |||||
| 111 | Lao PDR | LA | 77,168,272,174.94 | 111 | 5 | 12/31/2025 | |||||
| 112 | Armenia | AM | 74,133,719,241.99 | 112 | 5 | 12/31/2025 | |||||
| 113 | Luxembourg | LU | 73,255,242,650.92 | 113 | 5 | 12/31/2025 | |||||
| 114 | Guinea | GN | 71,348,025,929.61 | 114 | 5 | 12/31/2025 | |||||
| 115 | Benin | BJ | 70,545,861,890.27 | 115 | 5 | 12/31/2025 | |||||
| 116 | Estonia | EE | 70,200,795,560.25 | 116 | 5 | 12/31/2025 | |||||
| 117 | Burkina Faso | BF | 69,602,173,980.29 | 117 | 5 | 12/31/2025 | |||||
| 118 | Lebanon | LB | 68,478,885,041.67 | 118 | 5 | 12/31/2024 | |||||
| 119 | Guyana | GY | 67,128,957,533.45 | 119 | 5 | 12/31/2025 | |||||
| 120 | Kyrgyz Republic | KG | 66,939,412,983.66 | 120 | 5 | 12/31/2025 | |||||
| 121 | Albania | AL | 66,180,593,569.16 | 121 | 5 | 12/31/2025 | |||||
| 122 | Mongolia | MN | 65,897,194,137.96 | 122 | 5 | 12/31/2025 | |||||
| 123 | Madagascar | MG | 62,443,529,234.47 | 123 | 5 | 12/31/2025 | |||||
| 124 | Nicaragua | NI | 61,528,803,366.37 | 124 | 5 | 12/31/2025 | |||||
| 125 | Niger | NE | 59,897,883,004.86 | 125 | 5 | 12/31/2025 | |||||
| 126 | Rwanda | RW | 59,335,325,158.73 | 126 | 5 | 12/31/2025 | |||||
| 127 | Chad | TD | 58,206,822,819.10 | 127 | 5 | 12/31/2025 | |||||
| 128 | Cyprus | CY | 56,624,039,537.31 | 128 | 5 | 12/31/2025 | |||||
| 129 | Gabon | GA | 56,175,181,173.45 | 129 | 5 | 12/31/2025 | |||||
| 130 | Mozambique | MZ | 54,976,883,911.37 | 130 | 5 | 12/31/2025 | |||||
| 131 | Papua New Guinea | PG | 52,087,840,885.23 | 131 | 5 | 12/31/2025 | |||||
| 132 | Botswana | BW | 51,136,646,869.18 | 132 | 5 | 12/31/2025 | |||||
| 133 | Trinidad and Tobago | TT | 49,351,005,188.41 | 133 | 5 | 12/31/2025 | |||||
| 134 | North Macedonia | MK | 48,584,456,547.71 | 134 | 5 | 12/31/2025 | |||||
| 135 | Moldova | MD | 47,182,237,594.74 | 135 | 5 | 12/31/2025 | |||||
| 136 | Mauritius | MU | 46,012,855,709.33 | 136 | 5 | 12/31/2025 | |||||
| 137 | Brunei Darussalam | BN | 44,497,868,290.29 | 137 | 5 | 12/31/2025 | |||||
| 138 | Congo, Rep. | CG | 42,086,006,733.81 | 138 | 5 | 12/31/2025 | |||||
| 139 | Malawi | MW | 41,737,959,507.29 | 139 | 5 | 12/31/2025 | |||||
| 140 | Mauritania | MR | 40,591,240,880.29 | 140 | 5 | 12/31/2025 | |||||
| 141 | Malta | MT | 37,621,034,667.80 | 141 | 5 | 12/31/2025 | |||||
| 142 | Haiti | HT | 37,318,015,061.21 | 142 | 5 | 12/31/2025 | |||||
| 143 | Jamaica | JM | 37,130,703,258.40 | 143 | 5 | 12/31/2025 | |||||
| 144 | Togo | TG | 35,124,181,916.27 | 144 | 5 | 12/31/2025 | |||||
| 145 | Namibia | NA | 34,834,050,902.28 | 145 | 5 | 12/31/2025 | |||||
| 146 | Iceland | IS | 32,666,663,297.39 | 146 | 5 | 12/31/2025 | |||||
| 147 | Sierra Leone | SL | 32,561,764,223.89 | 147 | 5 | 12/31/2025 | |||||
| 148 | West Bank and Gaza | PS | 28,766,838,283.62 | 148 | 5 | 12/31/2025 | |||||
| 149 | Equatorial Guinea | GQ | 28,315,925,921.60 | 149 | 5 | 12/31/2025 | |||||
| 150 | Montenegro | ME | 22,242,787,487.91 | 150 | 5 | 12/31/2025 | |||||
| 151 | Burundi | BI | 17,916,577,799.92 | 151 | 5 | 12/31/2025 | |||||
| 152 | Bahamas, The | BS | 15,895,483,789.72 | 152 | 5 | 12/31/2024 | |||||
| 153 | Bhutan | BT | 14,756,303,126.45 | 153 | 5 | 12/31/2025 | |||||
| 154 | Fiji | FJ | 14,334,130,193.45 | 154 | 5 | 12/31/2025 | |||||
| 155 | Eswatini | SZ | 14,309,019,579.30 | 155 | 5 | 12/31/2025 | |||||
| 156 | Maldives | MV | 13,559,159,361.94 | 156 | 5 | 12/31/2025 | |||||
| 157 | Suriname | SR | 13,439,994,616.33 | 157 | 5 | 12/31/2025 | |||||
| 158 | South Sudan | SS | 11,250,917,095.27 | 158 | 5 | 12/31/2015 | |||||
| 159 | Liberia | LR | 10,566,238,173.27 | 159 | 5 | 12/31/2025 | |||||
| 160 | Gambia, The | GM | 10,320,873,122.52 | 160 | 5 | 12/31/2025 | |||||
| 161 | Djibouti | DJ | 10,252,488,425.63 | 161 | 5 | 12/31/2025 | |||||
| 162 | Lesotho | LS | 9,215,503,898.86 | 162 | 5 | 12/31/2025 | |||||
| 163 | Bermuda | BM | 7,920,114,074.41 | 163 | 5 | 12/31/2024 | |||||
| 164 | Central African Republic | CF | 7,660,254,149.88 | 164 | 5 | 12/31/2025 | |||||
| 165 | Guinea-Bissau | GW | 7,469,814,124.06 | 165 | 5 | 12/31/2025 | |||||
| 166 | Timor-Leste | TL | 7,266,722,873.01 | 166 | 5 | 12/31/2025 | |||||
| 167 | Barbados | BB | 7,019,871,166.68 | 167 | 5 | 12/31/2025 | |||||
| 168 | Andorra | AD | 6,710,953,287.25 | 168 | 5 | 12/31/2025 | |||||
| 169 | Cabo Verde | CV | 6,331,961,373.88 | 169 | 5 | 12/31/2025 | |||||
| 170 | Belize | BZ | 6,016,285,252.00 | 170 | 5 | 12/31/2025 | |||||
| 171 | Cayman Islands | KY | 5,544,924,877.55 | 171 | 5 | 12/31/2024 | |||||
| 172 | Aruba | AW | 5,281,375,775.54 | 172 | 5 | 12/31/2024 | |||||
| 173 | Curacao | CW | 5,198,457,739.27 | 173 | 5 | 12/31/2024 | |||||
| 174 | Eritrea | ER | 5,164,760,114.44 | 174 | 5 | 12/31/2011 | |||||
| 175 | St. Lucia | LC | 4,716,958,750.51 | 175 | 5 | 12/31/2025 | |||||
| 176 | Faroe Islands | FO | 4,561,187,478.76 | 176 | 5 | 12/31/2024 | |||||
| 177 | Seychelles | SC | 4,287,420,227.83 | 177 | 5 | 12/31/2025 | |||||
| 178 | Comoros | KM | 3,761,466,756.41 | 178 | 5 | 12/31/2025 | |||||
| 179 | Antigua and Barbuda | AG | 3,266,584,803.81 | 179 | 5 | 12/31/2025 | |||||
| 180 | San Marino | SM | 2,435,105,882.32 | 180 | 5 | 12/31/2023 | |||||
| 181 | Grenada | GD | 2,365,716,615.11 | 181 | 5 | 12/31/2025 | |||||
| 182 | Solomon Islands | SB | 2,340,154,403.85 | 182 | 5 | 12/31/2025 | |||||
| 183 | Greenland | GL | 2,277,578,573.62 | 183 | 5 | 12/31/2007 | |||||
| 184 | Sint Maarten (Dutch part) | SX | 2,256,955,212.48 | 184 | 5 | 12/31/2024 | |||||
| 185 | St. Vincent and the Grenadines | VC | 2,232,738,607.58 | 185 | 5 | 12/31/2025 | |||||
| 186 | Samoa | WS | 2,040,396,883.42 | 186 | 5 | 12/31/2025 | |||||
| 187 | Turks and Caicos Islands | TC | 1,744,957,466.36 | 187 | 5 | 12/31/2024 | |||||
| 188 | St. Kitts and Nevis | KN | 1,709,477,999.77 | 188 | 5 | 12/31/2025 | |||||
| 189 | Vanuatu | VU | 1,665,501,812.03 | 189 | 5 | 12/31/2025 | |||||
| 190 | Sao Tome and Principe | ST | 1,661,600,982.34 | 190 | 5 | 12/31/2025 | |||||
| 191 | Dominica | DM | 1,457,883,756.54 | 191 | 5 | 12/31/2025 | |||||
| 192 | Tonga | TO | 958,403,639.78 | 192 | 5 | 12/31/2025 | |||||
| 193 | Kiribati | KI | 829,884,705.66 | 193 | 5 | 12/31/2025 | |||||
| 194 | Micronesia, Fed. Sts. | FM | 577,580,070.03 | 194 | 5 | 12/31/2025 | |||||
| 195 | Palau | PW | 414,714,947.55 | 195 | 5 | 12/31/2025 | |||||
| 196 | Marshall Islands | MH | 384,378,723.74 | 196 | 5 | 12/31/2025 | |||||